SAA288 EDDH-LIMC

Flight info

Callsign SAA288
Flight time 1h 50m
Altitude 39000
Route IDEKO7G/33 IDEKO N850 ISPOF/N0483F410 N850 XAROL/N0481F400 DCT BOMBI DCT GIGET DCT ABUKA DCT KRH DCT NATOR/N0485F410 DCT DITON DCT BASGO/N0450F290 Z424 AKASU/N0388F190 Z424 RIXUV
Aircraft B772/H-SDE2E3FGHIJ5LORVWXY/LB1D1

Departure

Time 2026-05-05 18:41
Airport Hamburg Helmut Schmidt Airport (EDDH)

Arrival

Time 2026-05-05 20:31
Airport Milan Malpensa International Airport (LIMC)
Time Latitude Longitude Altitude Speed Heading
2026-05-05 17:53 53.63101 9.99994 55 ft 0 kts 143°
2026-05-05 18:32 53.63104 9.99991 55 ft 3 kts 144°
2026-05-05 18:32 53.63126 9.99972 69 ft 4 kts 175°
2026-05-05 18:32 53.63151 9.99978 44 ft 4 kts 214°
2026-05-05 18:33 53.63162 9.99994 47 ft 0 kts 231°
2026-05-05 18:35 53.63156 9.99981 51 ft 4 kts 231°
2026-05-05 18:35 53.63134 9.99939 43 ft 6 kts 224°
2026-05-05 18:36 53.63091 9.99899 48 ft 8 kts 188°
2026-05-05 18:36 53.63017 9.99943 51 ft 14 kts 152°
2026-05-05 18:36 53.62925 10.00019 48 ft 6 kts 155°
2026-05-05 18:36 53.62874 10.00027 55 ft 9 kts 188°
2026-05-05 18:37 53.62853 9.99995 47 ft 2 kts 246°
2026-05-05 18:38 53.62844 9.99964 55 ft 11 kts 243°
2026-05-05 18:38 53.62809 9.99836 50 ft 8 kts 258°
2026-05-05 18:38 53.62827 9.99787 52 ft 3 kts 314°
2026-05-05 18:38 53.62832 9.99780 51 ft 0 kts 325°
2026-05-05 18:40 53.62966 9.99657 49 ft 59 kts 333°
2026-05-05 18:40 53.63577 9.99140 49 ft 135 kts 332°
2026-05-05 18:40 53.64576 9.98264 284 ft 180 kts 335°
2026-05-05 18:41 53.65776 9.97227 832 ft 206 kts 335°
2026-05-05 18:41 53.67055 9.96134 1833 ft 209 kts 337°
2026-05-05 18:41 53.68369 9.95014 2837 ft 213 kts 336°
2026-05-05 18:41 53.69688 9.93791 3714 ft 221 kts 325°
2026-05-05 18:42 53.70650 9.91715 4555 ft 234 kts 295°
2026-05-05 18:42 53.71208 9.89011 4994 ft 256 kts 288°
2026-05-05 18:42 53.71348 9.85919 4973 ft 272 kts 257°
2026-05-05 18:42 53.70586 9.83016 4983 ft 271 kts 242°
2026-05-05 18:43 53.69773 9.80102 4987 ft 277 kts 248°
2026-05-05 18:43 53.69087 9.77071 4982 ft 274 kts 250°
2026-05-05 18:43 53.68460 9.74091 4976 ft 272 kts 251°
2026-05-05 18:43 53.67854 9.71076 4991 ft 270 kts 252°
2026-05-05 18:44 53.67260 9.68076 4999 ft 272 kts 252°
2026-05-05 18:44 53.66656 9.65018 5002 ft 276 kts 252°
2026-05-05 18:44 53.66048 9.61955 5002 ft 273 kts 250°
2026-05-05 18:44 53.65094 9.59242 5000 ft 273 kts 223°
2026-05-05 18:45 53.63474 9.57667 5001 ft 273 kts 195°
2026-05-05 18:45 53.61603 9.57156 5004 ft 273 kts 185°
2026-05-05 18:45 53.59702 9.56792 5007 ft 275 kts 186°
2026-05-05 18:45 53.57812 9.56428 4999 ft 272 kts 185°
2026-05-05 18:46 53.55952 9.56071 4988 ft 269 kts 185°
2026-05-05 18:46 53.54078 9.55712 4997 ft 270 kts 185°
2026-05-05 18:46 53.52217 9.55353 4996 ft 270 kts 186°
2026-05-05 18:46 53.50342 9.54988 4996 ft 271 kts 186°
2026-05-05 18:47 53.48466 9.54623 4998 ft 271 kts 186°
2026-05-05 18:47 53.46595 9.54257 4998 ft 271 kts 186°
2026-05-05 18:47 53.44715 9.53888 4998 ft 271 kts 186°
2026-05-05 18:47 53.42841 9.53518 4985 ft 272 kts 186°
2026-05-05 18:48 53.40965 9.53150 4987 ft 271 kts 186°
2026-05-05 18:48 53.39090 9.52782 4984 ft 271 kts 186°
2026-05-05 18:48 53.37215 9.52413 4980 ft 271 kts 185°
2026-05-05 18:48 53.35343 9.52047 4983 ft 271 kts 186°
2026-05-05 18:49 53.33471 9.51680 4991 ft 271 kts 185°
2026-05-05 18:49 53.31607 9.51314 5462 ft 274 kts 186°
2026-05-05 18:49 53.29692 9.50938 6549 ft 274 kts 186°
2026-05-05 18:49 53.27828 9.50572 7556 ft 273 kts 187°
2026-05-05 18:50 53.25902 9.50191 8543 ft 276 kts 187°
2026-05-05 18:50 53.24035 9.49826 9421 ft 274 kts 188°
2026-05-05 18:50 53.22119 9.49447 9888 ft 280 kts 188°
2026-05-05 18:50 53.20177 9.49065 9893 ft 282 kts 188°
2026-05-05 18:51 53.18231 9.48683 9903 ft 282 kts 188°
2026-05-05 18:51 53.16293 9.48301 9891 ft 283 kts 188°
2026-05-05 18:51 53.14943 9.48037 9891 ft 283 kts 188°
2026-05-05 18:51 53.12992 9.47655 9890 ft 282 kts 188°
2026-05-05 18:52 53.10407 9.47149 9888 ft 282 kts 188°
2026-05-05 18:52 53.08454 9.46768 9894 ft 282 kts 188°
2026-05-05 18:52 53.06493 9.46384 9918 ft 289 kts 188°
2026-05-05 18:52 53.05100 9.46109 10055 ft 309 kts 188°
2026-05-05 18:53 53.02100 9.45522 10562 ft 342 kts 188°
2026-05-05 18:53 53.00516 9.45214 11101 ft 348 kts 188°
2026-05-05 18:53 52.98081 9.44732 12041 ft 356 kts 188°
2026-05-05 18:53 52.95606 9.44210 13127 ft 361 kts 188°
2026-05-05 18:54 52.93091 9.43669 14080 ft 368 kts 188°
2026-05-05 18:54 52.90551 9.43124 15148 ft 370 kts 188°
2026-05-05 18:54 52.87985 9.42574 16182 ft 373 kts 188°
2026-05-05 18:54 52.85398 9.42021 17138 ft 379 kts 188°
2026-05-05 18:55 52.82754 9.41458 18022 ft 386 kts 188°
2026-05-05 18:55 52.80073 9.40889 18891 ft 391 kts 188°
2026-05-05 18:55 52.77362 9.40315 19790 ft 395 kts 188°
2026-05-05 18:55 52.74623 9.39736 20761 ft 397 kts 188°
2026-05-05 18:56 52.71790 9.39137 21716 ft 400 kts 189°
2026-05-05 18:56 52.69102 9.38569 22586 ft 404 kts 189°
2026-05-05 18:56 52.66295 9.37977 23425 ft 409 kts 189°
2026-05-05 18:56 52.63457 9.37380 24125 ft 413 kts 189°
2026-05-05 18:57 52.60606 9.36744 24857 ft 415 kts 190°
2026-05-05 18:57 52.57693 9.35994 25561 ft 418 kts 191°
2026-05-05 18:57 52.54863 9.35232 26215 ft 421 kts 191°
2026-05-05 18:57 52.51959 9.34449 26838 ft 424 kts 191°
2026-05-05 18:58 52.49034 9.33671 27441 ft 428 kts 191°
2026-05-05 18:58 52.46091 9.32899 28027 ft 431 kts 191°
2026-05-05 18:58 52.43115 9.32125 28589 ft 434 kts 191°
2026-05-05 18:58 52.40125 9.31351 29128 ft 437 kts 191°
2026-05-05 18:59 52.37115 9.30572 29656 ft 439 kts 190°
2026-05-05 18:59 52.34102 9.29794 30092 ft 442 kts 190°
2026-05-05 18:59 52.31030 9.28994 30485 ft 444 kts 190°
2026-05-05 18:59 52.27972 9.28194 30857 ft 446 kts 190°
2026-05-05 19:00 52.24906 9.27393 31236 ft 447 kts 190°
2026-05-05 19:00 52.21821 9.26612 31595 ft 448 kts 189°
2026-05-05 19:00 52.18766 9.26018 31959 ft 449 kts 187°
2026-05-05 19:00 52.15661 9.25508 32392 ft 447 kts 187°
2026-05-05 19:01 52.12577 9.25005 32927 ft 443 kts 187°
2026-05-05 19:01 52.09519 9.24474 33450 ft 440 kts 187°
2026-05-05 19:01 52.06485 9.23925 33933 ft 438 kts 187°
2026-05-05 19:01 52.03466 9.23331 34249 ft 439 kts 189°
2026-05-05 19:02 52.00438 9.22545 34497 ft 440 kts 191°
2026-05-05 19:02 51.97422 9.21686 34796 ft 442 kts 191°
2026-05-05 19:02 51.94384 9.20831 35091 ft 442 kts 190°
2026-05-05 19:02 51.91345 9.20013 35388 ft 443 kts 190°
2026-05-05 19:03 51.88298 9.19215 35683 ft 444 kts 189°
2026-05-05 19:03 51.85228 9.18491 35961 ft 445 kts 188°
2026-05-05 19:03 51.82161 9.17833 36249 ft 446 kts 188°
2026-05-05 19:03 51.79070 9.17190 36541 ft 447 kts 188°
2026-05-05 19:04 51.75980 9.16545 36830 ft 448 kts 188°
2026-05-05 19:04 51.72884 9.15890 37108 ft 449 kts 189°
2026-05-05 19:04 51.69788 9.15227 37390 ft 450 kts 189°
2026-05-05 19:04 51.66687 9.14559 37600 ft 452 kts 189°
2026-05-05 19:05 51.63550 9.13882 37825 ft 454 kts 189°
2026-05-05 19:05 51.60420 9.13208 38121 ft 454 kts 189°
2026-05-05 19:05 51.57284 9.12534 38410 ft 454 kts 189°
2026-05-05 19:05 51.54149 9.11861 38621 ft 455 kts 189°
2026-05-05 19:06 51.51001 9.11178 38727 ft 458 kts 190°
2026-05-05 19:06 51.47864 9.10234 38798 ft 458 kts 194°
2026-05-05 19:06 51.41662 9.08069 38798 ft 453 kts 194°
2026-05-05 19:07 51.35580 9.05982 38805 ft 447 kts 193°
2026-05-05 19:07 51.29427 9.04113 38808 ft 447 kts 189°
2026-05-05 19:08 51.23273 9.02912 38807 ft 450 kts 188°
2026-05-05 19:08 51.17033 9.01696 38808 ft 453 kts 188°
2026-05-05 19:09 51.10771 9.00460 38812 ft 454 kts 188°
2026-05-05 19:09 51.04501 8.99214 38810 ft 455 kts 188°
2026-05-05 19:10 50.98213 8.97966 38800 ft 455 kts 188°
2026-05-05 19:10 50.91935 8.96724 38802 ft 454 kts 188°
2026-05-05 19:11 50.85667 8.95488 38804 ft 453 kts 188°
2026-05-05 19:11 50.79415 8.94258 38803 ft 453 kts 188°
2026-05-05 19:12 50.73159 8.93031 38805 ft 453 kts 188°
2026-05-05 19:12 50.66904 8.91807 38807 ft 453 kts 188°
2026-05-05 19:13 50.60651 8.90587 38816 ft 453 kts 188°
2026-05-05 19:13 50.54394 8.89369 38812 ft 453 kts 188°
2026-05-05 19:14 50.48135 8.88154 38807 ft 454 kts 188°
2026-05-05 19:14 50.41857 8.86939 38818 ft 454 kts 188°
2026-05-05 19:15 50.35585 8.85728 38819 ft 455 kts 188°
2026-05-05 19:15 50.29297 8.84517 38811 ft 455 kts 188°
2026-05-05 19:16 50.23016 8.83311 38814 ft 456 kts 188°
2026-05-05 19:16 50.16751 8.82111 38884 ft 459 kts 188°
2026-05-05 19:17 50.13586 8.81505 39111 ft 459 kts 188°
2026-05-05 19:17 50.10377 8.80892 39355 ft 458 kts 188°
2026-05-05 19:17 50.07256 8.80298 39593 ft 457 kts 188°
2026-05-05 19:17 50.04058 8.79681 39831 ft 457 kts 188°
2026-05-05 19:18 50.00907 8.79042 40026 ft 458 kts 188°
2026-05-05 19:18 49.97809 8.78397 40215 ft 459 kts 189°
2026-05-05 19:18 49.94587 8.77724 40426 ft 459 kts 189°
2026-05-05 19:18 49.91447 8.77072 40628 ft 459 kts 189°
2026-05-05 19:19 49.88292 8.76420 40749 ft 461 kts 189°
2026-05-05 19:19 49.85097 8.75763 40793 ft 462 kts 189°
2026-05-05 19:19 49.78722 8.74460 40812 ft 460 kts 189°
2026-05-05 19:20 49.72394 8.73169 40823 ft 457 kts 189°
2026-05-05 19:20 49.66098 8.71886 40842 ft 456 kts 189°
2026-05-05 19:21 49.60213 8.70686 40821 ft 456 kts 189°
2026-05-05 19:21 49.53911 8.69404 40831 ft 457 kts 189°
2026-05-05 19:22 49.47606 8.68125 40838 ft 458 kts 189°
2026-05-05 19:22 49.41284 8.66845 40826 ft 459 kts 188°
2026-05-05 19:23 49.34949 8.65562 40833 ft 459 kts 188°
2026-05-05 19:23 49.28629 8.64285 40828 ft 460 kts 188°
2026-05-05 19:24 49.22328 8.63015 40832 ft 460 kts 188°
2026-05-05 19:24 49.15987 8.61740 40823 ft 459 kts 188°
2026-05-05 19:25 49.09737 8.60487 40822 ft 459 kts 188°
2026-05-05 19:25 49.03451 8.59229 40827 ft 459 kts 188°
2026-05-05 19:26 48.97136 8.57770 40824 ft 458 kts 193°
2026-05-05 19:26 48.91096 8.55794 40838 ft 459 kts 193°
2026-05-05 19:27 48.84848 8.53736 40834 ft 459 kts 193°
2026-05-05 19:27 48.78592 8.51703 40837 ft 459 kts 193°
2026-05-05 19:28 48.72343 8.49692 40829 ft 459 kts 193°
2026-05-05 19:28 48.66093 8.47687 40840 ft 459 kts 193°
2026-05-05 19:29 48.59842 8.45686 40846 ft 459 kts 193°
2026-05-05 19:29 48.53592 8.43690 40843 ft 459 kts 193°
2026-05-05 19:30 48.47352 8.41702 40842 ft 458 kts 193°
2026-05-05 19:30 48.41114 8.39720 40847 ft 458 kts 193°
2026-05-05 19:31 48.34871 8.37741 40858 ft 458 kts 193°
2026-05-05 19:31 48.28620 8.35763 40849 ft 458 kts 193°
2026-05-05 19:32 48.22392 8.33798 40861 ft 458 kts 193°
2026-05-05 19:32 48.16103 8.32214 40866 ft 459 kts 186°
2026-05-05 19:33 48.09710 8.32119 40864 ft 460 kts 181°
2026-05-05 19:33 48.03302 8.32272 40873 ft 461 kts 181°
2026-05-05 19:34 47.96885 8.32386 40877 ft 461 kts 181°
2026-05-05 19:35 47.87257 8.32521 40879 ft 461 kts 181°
2026-05-05 19:35 47.81918 8.32594 40890 ft 461 kts 181°
2026-05-05 19:36 47.75492 8.32682 40881 ft 462 kts 181°
2026-05-05 19:36 47.69087 8.32770 40885 ft 461 kts 181°
2026-05-05 19:37 47.62674 8.32858 40892 ft 461 kts 181°
2026-05-05 19:37 47.56273 8.32946 40900 ft 460 kts 181°
2026-05-05 19:38 47.49906 8.33033 40893 ft 460 kts 181°
2026-05-05 19:38 47.43514 8.33120 40898 ft 459 kts 181°
2026-05-05 19:39 47.37132 8.33207 40893 ft 460 kts 182°
2026-05-05 19:39 47.30989 8.33293 40913 ft 460 kts 181°
2026-05-05 19:40 47.24634 8.33985 40908 ft 462 kts 177°
2026-05-05 19:40 47.18376 8.34889 40918 ft 462 kts 177°
2026-05-05 19:41 47.12030 8.35789 40926 ft 463 kts 177°
2026-05-05 19:41 47.05615 8.36673 40904 ft 463 kts 178°
2026-05-05 19:42 46.99207 8.37546 40934 ft 463 kts 177°
2026-05-05 19:42 46.92807 8.38417 40943 ft 463 kts 178°
2026-05-05 19:43 46.86387 8.39285 40914 ft 462 kts 178°
2026-05-05 19:43 46.80029 8.40147 40538 ft 452 kts 178°
2026-05-05 19:43 46.76891 8.40572 39905 ft 453 kts 178°
2026-05-05 19:44 46.73746 8.41008 39298 ft 454 kts 177°
2026-05-05 19:44 46.70594 8.41495 38660 ft 455 kts 177°
2026-05-05 19:44 46.67439 8.42006 37871 ft 456 kts 177°
2026-05-05 19:44 46.64298 8.42521 37080 ft 454 kts 178°
2026-05-05 19:45 46.61170 8.43032 36410 ft 452 kts 178°
2026-05-05 19:45 46.58038 8.43539 35760 ft 450 kts 178°
2026-05-05 19:45 46.54967 8.44033 35281 ft 446 kts 179°
2026-05-05 19:45 46.51813 8.44533 35126 ft 454 kts 179°
2026-05-05 19:46 46.48714 8.45008 34953 ft 449 kts 180°
2026-05-05 19:46 46.45640 8.45045 34555 ft 435 kts 189°
2026-05-05 19:46 46.42690 8.44359 33932 ft 428 kts 198°
2026-05-05 19:46 46.39835 8.43177 33042 ft 426 kts 201°
2026-05-05 19:47 46.37014 8.41796 32006 ft 429 kts 202°
2026-05-05 19:47 46.34205 8.40338 31371 ft 426 kts 203°
2026-05-05 19:47 46.31430 8.38865 30668 ft 424 kts 203°
2026-05-05 19:47 46.28720 8.37406 30577 ft 408 kts 203°
2026-05-05 19:48 46.26111 8.35993 30475 ft 393 kts 204°
2026-05-05 19:48 46.23604 8.34654 30414 ft 379 kts 203°
2026-05-05 19:48 46.21188 8.33385 30361 ft 365 kts 203°
2026-05-05 19:48 46.18815 8.32149 30287 ft 353 kts 203°
2026-05-05 19:49 46.16533 8.30965 30137 ft 343 kts 203°
2026-05-05 19:49 46.14300 8.29813 29753 ft 339 kts 203°
2026-05-05 19:49 46.12092 8.28676 29360 ft 335 kts 203°
2026-05-05 19:49 46.09905 8.27551 28879 ft 333 kts 203°
2026-05-05 19:50 46.07730 8.26430 28403 ft 331 kts 203°
2026-05-05 19:50 46.05568 8.25307 27954 ft 329 kts 203°
2026-05-05 19:50 46.03422 8.24185 27477 ft 326 kts 201°
2026-05-05 19:50 46.01193 8.23603 26870 ft 334 kts 185°
2026-05-05 19:51 45.98853 8.24132 26010 ft 349 kts 166°
2026-05-05 19:51 45.96689 8.25775 25745 ft 357 kts 149°
2026-05-05 19:51 45.94913 8.28304 25489 ft 364 kts 135°
2026-05-05 19:51 45.93599 8.31426 25198 ft 372 kts 117°
2026-05-05 19:52 45.92987 8.35077 24898 ft 375 kts 105°
2026-05-05 19:52 45.92575 8.38723 24841 ft 365 kts 105°
2026-05-05 19:52 45.92169 8.42261 24758 ft 355 kts 106°
2026-05-05 19:52 45.91755 8.45677 24668 ft 346 kts 107°
2026-05-05 19:53 45.91318 8.49085 24659 ft 347 kts 107°
2026-05-05 19:53 45.90866 8.52532 24352 ft 348 kts 107°
2026-05-05 19:53 45.90418 8.55931 23782 ft 344 kts 107°
2026-05-05 19:53 45.89915 8.59226 23107 ft 330 kts 117°
2026-05-05 19:54 45.88817 8.61959 22375 ft 306 kts 139°
2026-05-05 19:54 45.87306 8.63917 21662 ft 291 kts 148°
2026-05-05 19:54 45.85733 8.65716 20950 ft 285 kts 148°
2026-05-05 19:54 45.84208 8.67455 20429 ft 277 kts 148°
2026-05-05 19:55 45.82717 8.69157 19890 ft 272 kts 148°
2026-05-05 19:55 45.81248 8.70846 19400 ft 270 kts 148°
2026-05-05 19:55 45.79785 8.72531 18908 ft 269 kts 147°
2026-05-05 19:55 45.78335 8.74206 18462 ft 268 kts 147°
2026-05-05 19:56 45.76880 8.75886 17950 ft 268 kts 147°
2026-05-05 19:56 45.75355 8.77399 17409 ft 266 kts 156°
2026-05-05 19:56 45.73728 8.78643 17072 ft 264 kts 158°
2026-05-05 19:56 45.72114 8.79829 16779 ft 259 kts 158°
2026-05-05 19:57 45.70491 8.81028 16733 ft 266 kts 158°
2026-05-05 19:57 45.69379 8.81859 16701 ft 268 kts 157°
2026-05-05 19:57 45.67193 8.83521 16000 ft 267 kts 156°
2026-05-05 19:57 45.65561 8.84771 15368 ft 265 kts 156°
2026-05-05 19:58 45.63943 8.86012 14754 ft 263 kts 156°
2026-05-05 19:58 45.62337 8.87243 14149 ft 260 kts 156°
2026-05-05 19:58 45.60684 8.88146 13503 ft 250 kts 171°
2026-05-05 19:58 45.59003 8.88588 12852 ft 244 kts 174°
2026-05-05 19:59 45.57332 8.88975 12154 ft 243 kts 173°
2026-05-05 19:59 45.55668 8.89387 11427 ft 243 kts 172°
2026-05-05 19:59 45.53999 8.89821 10719 ft 243 kts 172°
2026-05-05 19:59 45.52362 8.90259 10304 ft 234 kts 172°
2026-05-05 20:00 45.50749 8.90694 9903 ft 240 kts 171°
2026-05-05 20:00 45.49104 8.91137 9172 ft 242 kts 171°
2026-05-05 20:00 45.47455 8.91585 8482 ft 239 kts 171°
2026-05-05 20:00 45.45863 8.92018 8175 ft 231 kts 171°
2026-05-05 20:01 45.44265 8.92452 8026 ft 236 kts 171°
2026-05-05 20:01 45.42663 8.92886 7977 ft 232 kts 171°
2026-05-05 20:01 45.41085 8.93315 7778 ft 232 kts 171°
2026-05-05 20:01 45.39471 8.93752 7271 ft 241 kts 171°
2026-05-05 20:02 45.37852 8.94191 7061 ft 230 kts 171°
2026-05-05 20:02 45.36345 8.94602 6980 ft 214 kts 171°
2026-05-05 20:02 45.34889 8.94996 6979 ft 212 kts 171°
2026-05-05 20:02 45.33446 8.95386 6977 ft 211 kts 171°
2026-05-05 20:03 45.32002 8.95776 6988 ft 211 kts 171°
2026-05-05 20:03 45.30558 8.96166 6979 ft 212 kts 171°
2026-05-05 20:03 45.29105 8.96561 6990 ft 212 kts 171°
2026-05-05 20:03 45.27653 8.96955 6964 ft 213 kts 171°
2026-05-05 20:04 45.26197 8.97350 6962 ft 213 kts 171°
2026-05-05 20:04 45.24745 8.97744 6964 ft 212 kts 171°
2026-05-05 20:04 45.23294 8.98138 6965 ft 212 kts 171°
2026-05-05 20:04 45.21842 8.98534 6964 ft 212 kts 171°
2026-05-05 20:05 45.20393 8.98931 6965 ft 212 kts 171°
2026-05-05 20:05 45.18951 8.99328 6963 ft 211 kts 171°
2026-05-05 20:05 45.17531 8.99717 6962 ft 211 kts 171°
2026-05-05 20:05 45.16090 9.00111 6981 ft 211 kts 171°
2026-05-05 20:06 45.14644 9.00505 6965 ft 211 kts 171°
2026-05-05 20:06 45.13201 9.00898 6962 ft 212 kts 171°
2026-05-05 20:06 45.11750 9.01295 6969 ft 212 kts 171°
2026-05-05 20:06 45.10303 9.01688 6963 ft 212 kts 171°
2026-05-05 20:07 45.08852 9.02080 6958 ft 212 kts 171°
2026-05-05 20:07 45.07401 9.02474 6960 ft 212 kts 171°
2026-05-05 20:07 45.05952 9.02869 6970 ft 212 kts 171°
2026-05-05 20:07 45.04501 9.03265 6959 ft 212 kts 171°
2026-05-05 20:08 45.03053 9.03661 6959 ft 212 kts 171°
2026-05-05 20:08 45.01605 9.04063 6969 ft 211 kts 171°
2026-05-05 20:08 45.00166 9.04475 6955 ft 211 kts 171°
2026-05-05 20:08 44.98728 9.04890 6971 ft 210 kts 171°
2026-05-05 20:09 44.97296 9.05304 6962 ft 211 kts 171°
2026-05-05 20:09 44.95857 9.05722 6976 ft 211 kts 171°
2026-05-05 20:09 44.94429 9.06137 6967 ft 211 kts 171°
2026-05-05 20:09 44.92984 9.06553 6958 ft 211 kts 171°
2026-05-05 20:10 44.91545 9.06964 6946 ft 211 kts 171°
2026-05-05 20:10 44.90113 9.07370 6981 ft 210 kts 171°
2026-05-05 20:10 44.88679 9.07782 6959 ft 211 kts 171°
2026-05-05 20:10 44.87239 9.08199 6973 ft 211 kts 171°
2026-05-05 20:11 44.85796 9.08619 6978 ft 212 kts 171°
2026-05-05 20:11 44.84354 9.09037 6951 ft 211 kts 171°
2026-05-05 20:11 44.82918 9.09450 6967 ft 210 kts 171°
2026-05-05 20:11 44.81501 9.09871 6975 ft 207 kts 171°
2026-05-05 20:12 44.80088 9.10299 6957 ft 208 kts 171°
2026-05-05 20:12 44.78675 9.10730 6959 ft 208 kts 171°
2026-05-05 20:12 44.77262 9.11164 6976 ft 208 kts 171°
2026-05-05 20:12 44.75845 9.11600 6956 ft 208 kts 171°
2026-05-05 20:13 44.74437 9.12023 6956 ft 206 kts 171°
2026-05-05 20:13 44.73043 9.12242 6941 ft 199 kts 192°
2026-05-05 20:13 44.71792 9.11379 6990 ft 209 kts 225°
2026-05-05 20:13 44.71115 9.09591 6941 ft 212 kts 258°
2026-05-05 20:14 44.71152 9.07546 6974 ft 212 kts 278°
2026-05-05 20:14 44.71864 9.05697 6978 ft 223 kts 312°
2026-05-05 20:14 44.73191 9.04514 6983 ft 229 kts 330°
2026-05-05 20:14 44.74660 9.03597 6983 ft 233 kts 333°
2026-05-05 20:15 44.76170 9.02690 6974 ft 237 kts 333°
2026-05-05 20:15 44.77694 9.01777 6978 ft 238 kts 333°
2026-05-05 20:15 44.79214 9.00870 6952 ft 235 kts 333°
2026-05-05 20:15 44.80706 8.99991 6953 ft 231 kts 333°
2026-05-05 20:16 44.82190 8.99121 6957 ft 232 kts 333°
2026-05-05 20:16 44.83688 8.98239 6980 ft 235 kts 333°
2026-05-05 20:16 44.84689 8.97644 6977 ft 236 kts 334°
2026-05-05 20:16 44.86710 8.96424 6955 ft 236 kts 333°
2026-05-05 20:17 44.88216 8.95510 6953 ft 234 kts 333°
2026-05-05 20:17 44.89203 8.94910 6955 ft 233 kts 333°
2026-05-05 20:17 44.90685 8.94009 6954 ft 231 kts 333°
2026-05-05 20:17 44.92631 8.92827 6955 ft 229 kts 333°
2026-05-05 20:18 44.94092 8.91940 6959 ft 229 kts 333°
2026-05-05 20:18 44.95080 8.91340 6976 ft 229 kts 333°
2026-05-05 20:18 44.97022 8.90160 6974 ft 230 kts 333°
2026-05-05 20:18 44.98019 8.89555 6971 ft 231 kts 333°
2026-05-05 20:19 44.99500 8.88655 6974 ft 232 kts 333°
2026-05-05 20:19 45.00985 8.87752 6979 ft 233 kts 333°
2026-05-05 20:19 45.02482 8.86864 6954 ft 232 kts 339°
2026-05-05 20:19 45.04074 8.86394 6900 ft 237 kts 349°
2026-05-05 20:20 45.05698 8.86115 6531 ft 238 kts 352°
2026-05-05 20:20 45.07382 8.85844 5820 ft 244 kts 352°
2026-05-05 20:20 45.09074 8.85560 5132 ft 245 kts 352°
2026-05-05 20:20 45.10721 8.85270 4664 ft 235 kts 352°
2026-05-05 20:21 45.12278 8.84984 4392 ft 216 kts 352°
2026-05-05 20:21 45.13756 8.84705 4186 ft 216 kts 352°
2026-05-05 20:21 45.15261 8.84415 4081 ft 221 kts 352°
2026-05-05 20:21 45.16786 8.84118 4026 ft 221 kts 351°
2026-05-05 20:22 45.18295 8.83819 3981 ft 219 kts 352°
2026-05-05 20:22 45.19800 8.83520 3971 ft 217 kts 351°
2026-05-05 20:22 45.21298 8.83220 3970 ft 218 kts 351°
2026-05-05 20:22 45.22799 8.82919 3971 ft 218 kts 351°
2026-05-05 20:23 45.24302 8.82615 3995 ft 218 kts 352°
2026-05-05 20:23 45.25804 8.82311 4003 ft 218 kts 352°
2026-05-05 20:23 45.27309 8.82007 3999 ft 219 kts 352°
2026-05-05 20:23 45.28813 8.81702 3996 ft 219 kts 352°
2026-05-05 20:24 45.30320 8.81396 3995 ft 218 kts 352°
2026-05-05 20:24 45.31825 8.81091 3980 ft 219 kts 352°
2026-05-05 20:24 45.33340 8.80782 3788 ft 222 kts 352°
2026-05-05 20:24 45.34894 8.80466 3345 ft 228 kts 352°
2026-05-05 20:25 45.36460 8.80146 3082 ft 225 kts 352°
2026-05-05 20:25 45.37971 8.79838 3017 ft 212 kts 353°
2026-05-05 20:25 45.39404 8.79551 2998 ft 207 kts 354°
2026-05-05 20:25 45.40855 8.79334 3016 ft 212 kts 354°
2026-05-05 20:26 45.42323 8.79024 3009 ft 214 kts 351°
2026-05-05 20:26 45.43762 8.78650 2998 ft 204 kts 350°
2026-05-05 20:26 45.45104 8.78285 2979 ft 188 kts 350°
2026-05-05 20:26 45.46369 8.77937 2991 ft 184 kts 350°
2026-05-05 20:27 45.47624 8.77592 3000 ft 184 kts 349°
2026-05-05 20:27 45.48869 8.77249 2997 ft 183 kts 350°
2026-05-05 20:27 45.50128 8.76903 3002 ft 183 kts 350°
2026-05-05 20:27 45.51373 8.76560 2807 ft 180 kts 350°
2026-05-05 20:28 45.52553 8.76235 2576 ft 164 kts 350°
2026-05-05 20:28 45.53621 8.75940 2376 ft 148 kts 351°
2026-05-05 20:28 45.54600 8.75671 2185 ft 142 kts 351°
2026-05-05 20:28 45.55562 8.75406 2000 ft 140 kts 351°
2026-05-05 20:29 45.56512 8.75145 1784 ft 138 kts 351°
2026-05-05 20:29 45.57457 8.74885 1594 ft 138 kts 351°
2026-05-05 20:29 45.58378 8.74630 1395 ft 132 kts 350°
2026-05-05 20:29 45.59280 8.74381 1218 ft 131 kts 349°
2026-05-05 20:30 45.60174 8.74135 1035 ft 131 kts 349°
2026-05-05 20:30 45.61067 8.73888 850 ft 131 kts 349°
2026-05-05 20:30 45.61961 8.73641 723 ft 128 kts 349°
2026-05-05 20:30 45.62708 8.73436 734 ft 88 kts 349°
2026-05-05 20:31 45.63124 8.73261 739 ft 43 kts 324°
2026-05-05 20:31 45.63295 8.72992 742 ft 15 kts 304°
2026-05-05 20:31 45.63298 8.72987 743 ft 0 kts 304°
2026-05-05 20:32 45.63301 8.72981 743 ft 8 kts 304°
2026-05-05 20:32 45.63321 8.72937 743 ft 5 kts 306°
2026-05-05 20:32 45.63391 8.72781 746 ft 21 kts 293°
2026-05-05 20:33 45.63401 8.72580 747 ft 21 kts 259°
2026-05-05 20:33 45.63373 8.72379 748 ft 21 kts 259°
2026-05-05 20:33 45.63346 8.72179 748 ft 20 kts 259°
2026-05-05 20:33 45.63334 8.72084 749 ft 0 kts 259°
2026-05-05 20:35 45.63333 8.72078 749 ft 4 kts 259°
2026-05-05 20:35 45.63303 8.71988 747 ft 16 kts 216°
2026-05-05 20:35 45.63146 8.72008 745 ft 28 kts 169°
2026-05-05 20:35 45.62977 8.72053 744 ft 12 kts 168°
2026-05-05 20:36 45.62899 8.72076 744 ft 15 kts 168°
2026-05-05 20:36 45.62768 8.72111 741 ft 21 kts 169°
2026-05-05 20:36 45.62622 8.72153 739 ft 22 kts 169°
2026-05-05 20:36 45.62469 8.72195 738 ft 23 kts 168°
2026-05-05 20:37 45.62310 8.72236 733 ft 23 kts 169°
2026-05-05 20:37 45.62151 8.72282 731 ft 23 kts 170°
2026-05-05 20:37 45.61990 8.72325 729 ft 24 kts 169°
2026-05-05 20:37 45.61827 8.72371 726 ft 24 kts 169°
2026-05-05 20:38 45.61680 8.72414 721 ft 5 kts 168°
2026-05-05 20:38 45.61632 8.72428 721 ft 15 kts 168°
2026-05-05 20:38 45.61529 8.72453 722 ft 15 kts 168°
2026-05-05 20:38 45.61442 8.72469 716 ft 9 kts 191°
2026-05-05 20:39 45.61404 8.72399 720 ft 9 kts 252°
2026-05-05 20:39 45.61389 8.72307 717 ft 9 kts 257°
2026-05-05 20:39 45.61381 8.72215 718 ft 9 kts 270°
2026-05-05 20:39 45.61419 8.72164 721 ft 8 kts 359°
2026-05-05 20:40 45.61462 8.72179 722 ft 4 kts 34°
2026-05-05 20:40 45.61469 8.72207 720 ft 2 kts 111°
2026-05-05 20:40 45.61451 8.72236 722 ft 8 kts 124°
2026-05-05 20:40 45.61444 8.72256 721 ft 0 kts 115°